Regional Weather Roundup
Issued by NWS

Home | Current Version | Previous Version | Graphics & Text | Print | Product List | Glossary On
Versions: 1 2 3 4 5 6 7 8 9 10 11 12 13 14 15 16 17 18 19 20 21 22 23 24 25 26 27 28 29 30 31 32 33 34 35 36 37 38 39 40 41 42 43 44 45 46 47 48 49 50
000
ASUS43 KLSX 290207
RWRMO

WEATHER SUMMARY FOR MISSOURI
NATIONAL WEATHER SERVICE SPRINGFIELD MO
900 PM CDT MON JUL 28 2014

NOTE: "FAIR" INDICATES FEW OR NO CLOUDS BELOW 12,000 FEET WITH NO
       SIGNIFICANT WEATHER AND/OR OBSTRUCTIONS TO VISIBILITY.
       CURRENT SKY AND/OR WEATHER CONDITIONS ARE NOT AVAILABLE FOR
       CHILLICOTHE AND FARMINGTON.

MOZ001>031-035>038-043-044-053-054-290300-
...NORTHERN AND WESTERN MISSOURI...

CITY           SKY/WX    TMP DP  RH WIND       PRES   REMARKS
KANSAS CTY INT PTCLDY    70  60  70 NW5       30.16S
KANSAS C DTWN  CLEAR     75  58  55 N5        30.14S
LEE`S SUMMIT   CLEAR     72  57  59 N5        30.15S
ST JOSEPH      CLEAR     68  60  75 NW5       30.16R
CHILLICOTHE      N/A     68  60  75 CALM      30.16R
KIRKSVILLE     CLOUDY    65  58  78 NE3       30.16R

$$
MOZ066>068-077>081-088>096-101>105-290300-
...SOUTHWEST MISSOURI...

CITY           SKY/WX    TMP DP  RH WIND       PRES   REMARKS
SPRINGFIELD    CLEAR     72  57  59 N7        30.12S
JOPLIN         CLEAR     74  58  57 NE6       30.13S

$$
MOZ032>034-039>042-045>050-055>058-069>072-290300-
...CENTRAL MISSOURI...

CITY           SKY/WX    TMP DP  RH WIND       PRES   REMARKS
COLUMBIA       CLEAR     67  55  65 NE5       30.14S
JEFFERSON CITY CLEAR     72  54  53 NE5       30.12S
ROLLA          CLEAR     66  53  63 N5        30.12R
SEDALIA        CLEAR     69  58  67 NE3       30.15R
WHITEMAN AFB   CLEAR     69  50  51 NE2       30.13S
OSAGE BEACH    CLEAR     72  55  56 NE6       30.13R

$$
MOZ051-052-059>065-290300-
...EAST CENTRAL MISSOURI...

CITY           SKY/WX    TMP DP  RH WIND       PRES   REMARKS
ST LOUIS INTL  PTCLDY    68  55  63 N6        30.12R
SPIRIT OF STL  PTCLDY    70  54  56 N3        30.10S
ST CHARLES     CLEAR     66  55  67 N5        30.10S

$$
MOZ072>076-082>087-097>100-106>115-290300-
...SOUTH CENTRAL AND SOUTHEAST MISSOURI...

CITY           SKY/WX    TMP DP  RH WIND       PRES   REMARKS
CAPE GIRARDEAU CLEAR     73  60  63 N12       30.06R
FARMINGTON     PTCLDY    70  55  60 N8        30.13R
POPLAR BLUFF   PTCLDY    74  60  61 N6        30.04R
WEST PLAINS    CLEAR     72  56  57 N6        30.11R

$$


USA.gov is the U.S. government's official web portal to all federal, state and local government web resources and services.